User: anonymous   Login
Location: Mentone
(34.5413°N, 85.5351°W)
Time: 15:39:20
(UTC-05:00)
Language:

Cosmos 2026 Rocket - Orbit

View from above orbital plane
View from above orbital plane
View from above satellite
View from above satellite

Ground track
Ground track

The orbit data is extracted from the following two-line orbital elements,

1 20046U 89042B   17200.89335468 +.00000035 +00000-0 +19693-4 0  9991
2 20046 082.9382 278.8200 0041430 338.7400 021.2034 13.78103010413554
Epoch (UTC): 19 July 2017 21:26:25
Eccentricity: 0.0041430
inclination: 82.9382°
perigee height: 940 km
apogee height: 1001 km
right ascension of ascending node: 278.8200°
argument of perigee: 338.7400°
revolutions per day: 13.78103010
mean anomaly at epoch: 21.2034°
orbit number at epoch: 41355

The dashed part of the orbit path shows where the satellite is in the earth's shadow,  

DLR